This demonstration page uses our WeatherBlox Daily Observations layout. Learn more.

Hourly Observations for November 8, 2016

Temp ( °F °C ) Dew Point ( °F °C ) Humidity (%) Winds ( mph kmh ) Pressure ( in mb ) Visibility ( mi km ) Precip ( " mm )
12:54 am 00:54 Cloudy 53 11.7 51 10.6 93 93 NW 6 9 30.3 1026 10 16.0934 0 0
1:54 am 01:54 Mostly Clear 52 11.1 46 7.8 80 80 NNW 14 22 30.31 1026 10 16.0934 0 0
2:54 am 02:54 Partly Cloudy 48 8.9 43 6.1 83 83 N 12 19 30.34 1028 10 16.0934 0 0
3:54 am 03:54 Clear 47 8.3 41 5 80 80 NNW 13 20 30.35 1028 10 16.0934 0 0
4:54 am 04:54 Clear 45 7.2 40 4.4 83 83 NNW 10 17 30.38 1029 10 16.0934 0 0
5:54 am 05:54 Clear 42 5.6 38 3.3 85 85 N 7 11 30.4 1030 10 16.0934 0 0
6:54 am 06:54 Clear 43 6.1 38 3.3 82 82 NNW 8 13 30.42 1030 10 16.0934 0 0
7:54 am 07:54 Sunny 45 7.2 39 3.9 80 80 NNW 12 19 30.44 1031 10 16.0934 0 0
8:54 am 08:54 Sunny 49 9.4 42 5.6 77 77 N 12 19 30.46 1031 10 16.0934 0 0
9:54 am 09:54 Sunny 52 11.1 42 5.6 69 69 NNE 14 22 30.47 1032 10 16.0934 0 0
10:54 am 10:54 Sunny 55 12.8 42 5.6 62 62 NNE 14 22 30.47 1032 10 16.0934 0 0
11:54 am 11:54 Sunny 58 14.4 42 5.6 56 56 N 15 24 30.46 1031 10 16.0934 0 0
12:54 pm 12:54 Sunny 59 15 40 4.4 49 49 N 17 28 30.43 1031 10 16.0934 0 0
1:54 pm 13:54 Sunny 61 16.1 39 3.9 44 44 N 16 26 30.41 1030 10 16.0934 0 0
2:54 pm 14:54 Sunny 61 16.1 38 3.3 43 43 N 13 20 30.41 1030 10 16.0934 0 0
3:54 pm 15:54 Sunny 60 15.6 37 2.8 42 42 N 15 24 30.43 1030 10 16.0934 0 0
4:54 pm 16:54 Sunny 55 12.8 37 2.8 51 51 N 12 19 30.44 1031 10 16.0934 0 0
5:54 pm 17:54 Clear 45 7.2 35 1.7 68 68 N 8 13 30.46 1032 10 16.0934 0 0
6:54 pm 18:54 Clear 47 8.3 36 2.2 66 66 N 9 15 30.47 1032 10 16.0934 0 0
7:54 pm 19:54 Clear 41 5 34 1.1 76 76 N 6 9 30.48 1032 10 16.0934 0 0
8:54 pm 20:54 Clear 44 6.7 35 1.7 71 71 N 3 6 30.48 1032 10 16.0934 0 0
9:54 pm 21:54 Clear 36 2.2 32 0 86 86 N 3 6 30.49 1032 10 16.0934 0 0
10:54 pm 22:54 Clear 36 2.2 32 0 86 86 NNW 5 7 30.48 1032 10 16.0934 0 0
11:54 pm 23:54 Clear 35 1.7 31 -0.6 85 85 NNW 5 7 30.48 1032 10 16.0934 0 0

Powered by AerisWeather